Location: ?????
(42.2640°N, 43.4211°E)
Time: 15:24:58
(UTC+00:00)

Cosmos 1943 - Pass Details

Date: 07 August 2020
Orbit: 834 x 849 km, 71.0° (Epoch: 19 September)

Event Time Altitude Azimuth Distance (km) Brightness Sun altitude
Rises 01:25:20 0° 330° (NNW) 3,390 6.4 -7.5°
Reaches altitude 10° 01:27:50 10° 326° (NW) 2,452 5.6 -7.1°
Maximum altitude 01:33:14 51° 252° (WSW) 1,048 3.4 -6.2°
Drops below altitude 10° 01:38:38 10° 178° (S) 2,441 5.4 -5.3°
Sets 01:41:07 0° 173° (S) 3,373 6.1 -4.9°
